This demonstration page uses our WeatherBlox Daily Observations layout. Learn more.

Left ArrowRight Arrow

Hourly Observations for February 16, 2016

Temp ( °F °C ) Dew Point ( °F °C ) Humidity (%) Winds ( mph kmh ) Pressure ( in mb ) Visibility ( mi km ) Precip ( " mm )
12:15 am 00:15 Mostly Cloudy 28 -2 28 -2 100 100 NW 3 6 29.85 1011 3 5 N/A
12:34 am 00:34 Partly Cloudy 28 -2 27 -3 93 93 N N/A 29.85 1011 3 5 N/A
12:54 am 00:54 Partly Cloudy 27 -3 27 -3 100 100 WNW 5 7 29.85 1011 3 4 N/A
1:15 am 01:15 Mostly Cloudy 28 -2 28 -2 100 100 WNW 3 6 29.83 1010 3 4 N/A
1:34 am 01:34 Partly Cloudy 28 -2 27 -3 93 93 N N/A 29.83 1010 3 4 N/A
1:54 am 01:54 Mostly Cloudy 27 -3 27 -3 100 100 N N/A 29.83 1010 2 3 N/A
2:15 am 02:15 Mostly Cloudy 27 -3 27 -3 100 100 N N/A 29.83 1010 3 4 N/A
2:34 am 02:34 Cloudy 28 -2 27 -3 93 93 N N/A 29.83 1010 3 4 N/A
2:54 am 02:54 Cloudy 28 -2 27 -3 93 93 WNW 5 7 29.83 1010 3 4 N/A
3:15 am 03:15 Cloudy 28 -2 28 -2 100 100 WNW 6 9 29.83 1010 3 5 N/A
3:34 am 03:34 Cloudy 28 -2 28 -2 100 100 WNW 5 7 29.83 1010 3 5 N/A
3:55 am 03:55 Cloudy 28 -2 28 -2 100 100 WNW 6 9 29.83 1010 3 5 N/A
4:14 am 04:14 Cloudy 30 -1 28 -2 93 93 W 5 7 29.83 1010 3 5 N/A
4:34 am 04:34 Cloudy 30 -1 28 -2 93 93 WNW 5 7 29.83 1010 4 6 N/A
4:55 am 04:55 Cloudy 30 -1 28 -2 93 93 W 6 9 29.83 1010 4 6 N/A
5:14 am 05:14 Cloudy 30 -1 28 -2 93 93 WNW 5 7 29.83 1010 4 6 N/A
5:34 am 05:34 Cloudy 30 -1 27 -3 86 86 WNW 5 7 29.83 1010 5 8 N/A
5:55 am 05:55 Cloudy 30 -1 27 -3 86 86 NW 3 6 29.83 1010 7 11 N/A
6:14 am 06:14 Cloudy 30 -1 27 -3 86 86 NW 3 6 29.83 1010 7 11 N/A
6:34 am 06:34 Cloudy 30 -1 27 -3 86 86 NW 5 7 29.83 1010 7 11 N/A
6:55 am 06:55 Cloudy 28 -2 27 -3 93 93 W 3 6 29.83 1010 10 16 N/A
7:14 am 07:14 Cloudy 28 -2 27 -3 93 93 WNW 7 11 29.83 1010 7 11 N/A
7:34 am 07:34 Cloudy 30 -1 27 -3 86 86 W 8 13 29.85 1011 5 8 N/A
7:55 am 07:55 Cloudy 28 -2 27 -3 93 93 W 7 11 29.85 1011 7 11 N/A
8:14 am 08:14 Cloudy 30 -1 27 -3 86 86 W 6 9 29.85 1011 7 11 N/A
8:34 am 08:34 Cloudy 30 -1 27 -3 86 86 WNW 8 13 29.88 1012 7 11 N/A
8:55 am 08:55 Cloudy 30 -1 27 -3 86 86 W 10 17 29.88 1012 7 11 N/A
9:14 am 09:14 Cloudy 30 -1 27 -3 86 86 W 6 9 29.88 1012 7 11 N/A
9:33 am 09:33 Cloudy 30 -1 27 -3 86 86 W 8 13 29.88 1012 7 11 N/A
9:54 am 09:54 Cloudy 30 -1 27 -3 86 86 W 8 13 29.88 1012 7 11 N/A
10:14 am 10:14 Cloudy 30 -1 27 -3 86 86 W 8 13 29.88 1012 7 11 N/A
10:35 am 10:35 Cloudy 30 -1 27 -3 86 86 W 3 6 29.88 1012 7 11 N/A
10:54 am 10:54 Cloudy 30 -1 27 -3 86 86 N N/A 29.88 1012 7 11 N/A
11:14 am 11:14 Cloudy 32 undefined 27 -3 80 80 WNW 3 6 29.88 1012 7 11 N/A
11:35 am 11:35 Cloudy 32 undefined 27 -3 80 80 N N/A 29.88 1012 7 11 N/A
11:54 am 11:54 Cloudy 32 undefined 28 -2 87 87 W 6 9 29.88 1012 7 11 N/A
12:15 pm 12:15 Cloudy 32 undefined 28 -2 87 87 WNW 5 7 29.88 1012 5 8 N/A
12:34 pm 12:34 Cloudy 32 undefined 28 -2 87 87 WNW 5 7 29.88 1012 7 11 N/A
12:54 pm 12:54 Cloudy 32 undefined 28 -2 87 87 W 6 9 29.88 1012 5 8 N/A
1:15 pm 13:15 Cloudy 34 1 28 -2 81 81 WNW 8 13 29.83 1010 7 11 N/A
1:34 pm 13:34 Cloudy 34 1 28 -2 81 81 WNW 5 7 29.83 1010 7 11 N/A
1:54 pm 13:54 Cloudy 34 1 28 -2 81 81 W 6 9 29.83 1010 10 16 N/A
2:15 pm 14:15 Cloudy 36 2 28 -2 75 75 W 7 11 29.83 1010 10 16 N/A
2:34 pm 14:34 Mostly Cloudy 37 3 28 -2 70 70 NW 8 13 29.83 1010 10 16 N/A
2:54 pm 14:54 Partly Cloudy 36 2 28 -2 75 75 NW 10 17 29.83 1010 10 16 N/A
3:14 pm 15:14 Sunny 36 2 27 -3 70 70 N 9 15 29.83 1010 10 16 N/A
3:34 pm 15:34 Sunny 36 2 27 -3 70 70 NNW 8 13 29.83 1010 10 16 N/A
3:55 pm 15:55 Sunny 36 2 27 -3 70 70 NNW 6 9 29.83 1010 10 16 N/A
4:14 pm 16:14 Sunny 34 1 27 -3 75 75 N 7 11 29.83 1010 10 16 N/A
4:34 pm 16:34 Sunny 34 1 27 -3 75 75 N 8 13 29.88 1012 10 16 N/A
4:55 pm 16:55 Sunny 32 undefined 27 -3 80 80 NNW 7 11 29.88 1012 10 16 N/A
5:14 pm 17:14 Sunny 32 undefined 27 -3 80 80 NNW 8 13 29.88 1012 10 16 N/A
5:34 pm 17:34 Sunny 32 undefined 27 -3 80 80 N 7 11 29.91 1013 10 16 N/A
5:55 pm 17:55 Sunny 30 -1 27 -3 86 86 N 7 11 29.94 1014 10 16 N/A
6:14 pm 18:14 Partly Cloudy 30 -1 27 -3 86 86 N 5 7 29.94 1014 10 16 N/A
6:34 pm 18:34 Mostly Cloudy 28 -2 25 -4 86 86 N 6 9 29.94 1014 10 16 N/A
6:55 pm 18:55 Mostly Cloudy 28 -2 25 -4 86 86 N 7 11 29.94 1014 10 16 N/A
7:14 pm 19:14 Cloudy 30 -1 25 -4 80 80 N 6 9 29.94 1014 10 16 N/A
7:34 pm 19:34 Cloudy 30 -1 27 -3 86 86 N 6 9 29.97 1015 10 16 N/A
7:55 pm 19:55 Cloudy 28 -2 25 -4 86 86 N 3 6 29.97 1015 10 16 N/A
8:14 pm 20:14 Cloudy 28 -2 25 -4 86 86 N N/A 29.97 1015 10 16 N/A
8:34 pm 20:34 Cloudy 28 -2 25 -4 86 86 N N/A 29.97 1015 7 11 N/A
8:55 pm 20:55 Cloudy 28 -2 25 -4 86 86 N N/A 29.97 1015 7 11 N/A
9:14 pm 21:14 Cloudy 28 -2 27 -3 93 93 N N/A 30.00 1016 7 11 N/A
9:34 pm 21:34 Cloudy 28 -2 27 -3 93 93 NNW 3 6 30.00 1016 7 11 N/A
9:55 pm 21:55 Cloudy 28 -2 27 -3 93 93 N N/A 30.00 1016 7 11 N/A
10:14 pm 22:14 Cloudy 28 -2 27 -3 93 93 N N/A 30.00 1016 7 11 N/A
10:34 pm 22:34 Cloudy 28 -2 25 -4 86 86 N N/A 30.03 1017 7 11 N/A
10:55 pm 22:55 Cloudy 28 -2 27 -3 93 93 N N/A 30.03 1017 7 11 N/A
11:14 pm 23:14 Cloudy 28 -2 27 -3 93 93 N N/A 30.03 1017 7 11 N/A
11:34 pm 23:34 Cloudy 28 -2 27 -3 93 93 W 3 6 30.03 1017 4 6 N/A
11:55 pm 23:55 Cloudy 28 -2 27 -3 93 93 W 5 7 30.03 1017 5 8 N/A

Powered by AerisWeather